Location: Eschertshofen
(49.3064°N, 11.5756°E)
Time: 21:41:49
(UTC+00:00)

Spot 2 Rocket - Pass Details

Date: 18 September 2020
Orbit: 758 x 771 km, 98.6° (Epoch: 30 October)

Event Time Altitude Azimuth Distance (km) Brightness Sun altitude
Exits shadow 19:48:05 51° 71° (ENE) 953 3.7 -23.6°
Maximum altitude 19:48:08 51° 69° (ENE) 953 3.7 -23.6°
Drops below altitude 10° 19:53:01 10° 354° (N) 2,300 6.5 -24.3°
Sets 19:55:22 0° 350° (N) 3,230 7.4 -24.6°
